Location: Bodest
(46.3000°N, 22.5667°E)
Time: 09:23:06
(UTC+00:00)

Cosmos 494 Rocket - Pass Details

Date: 16 October 2021
Orbit: 743 x 770 km, 74.1° (Epoch: 07 December)

Event Time Altitude Azimuth Distance (km) Brightness Sun altitude
Rises 16:04:53 0° 342° (NNW) 3,243 7.4 -4.8°
Reaches altitude 10° 16:07:22 10° 348° (NNW) 2,309 6.6 -5.2°
Maximum altitude 16:12:25 48° 62° (ENE) 996 4.3 -6.1°
Drops below altitude 10° 16:17:25 10° 137° (SE) 2,277 6.1 -7.0°
Sets 16:19:50 0° 143° (SE) 3,193 6.9 -7.4°
